TimeEDT,TemperatureF,Dew PointF,Humidity,Sea Level PressureIn,VisibilityMPH,Wind Direction,Wind SpeedMPH,Gust SpeedMPH,PrecipitationIn,Events,Conditions,WindDirDegrees,DateUTC
12:54 AM,54.0,51.1,90,30.24,10.0,Calm,Calm,-,N/A,,Clear,0,2013-05-27 04:54:00
1:54 AM,51.1,48.0,89,30.23,10.0,Calm,Calm,-,N/A,,Clear,0,2013-05-27 05:54:00
2:54 AM,52.0,50.0,93,30.24,10.0,Calm,Calm,-,N/A,,Clear,0,2013-05-27 06:54:00
3:54 AM,52.0,50.0,93,30.24,10.0,Calm,Calm,-,N/A,,Clear,0,2013-05-27 07:54:00
4:54 AM,48.0,48.0,100,30.25,10.0,SW,4.6,-,N/A,,Clear,220,2013-05-27 08:54:00
5:54 AM,48.0,48.0,100,30.26,9.0,SSW,3.5,-,N/A,,Clear,210,2013-05-27 09:54:00
6:54 AM,53.1,51.1,93,30.28,10.0,Calm,Calm,-,N/A,,Clear,0,2013-05-27 10:54:00
7:54 AM,61.0,55.9,83,30.29,10.0,Calm,Calm,-,N/A,,Clear,0,2013-05-27 11:54:00
8:54 AM,66.9,55.9,68,30.29,10.0,SW,6.9,-,N/A,,Clear,230,2013-05-27 12:54:00
9:54 AM,71.1,52.0,51,30.29,10.0,SSW,6.9,-,N/A,,Clear,200,2013-05-27 13:54:00
10:54 AM,73.0,48.0,41,30.29,10.0,South,8.1,-,N/A,,Clear,190,2013-05-27 14:54:00
11:54 AM,73.9,43.0,33,30.30,10.0,SSW,9.2,-,N/A,,Clear,200,2013-05-27 15:54:00
12:54 PM,75.0,44.1,33,30.28,10.0,SW,6.9,-,N/A,,Clear,230,2013-05-27 16:54:00
1:54 PM,77.0,45.0,32,30.27,10.0,SSW,9.2,-,N/A,,Clear,210,2013-05-27 17:54:00
2:54 PM,77.0,46.0,33,30.26,10.0,SW,3.5,-,N/A,,Clear,230,2013-05-27 18:54:00
3:54 PM,77.0,50.0,39,30.24,10.0,Variable,5.8,16.1,N/A,,Clear,0,2013-05-27 19:54:00
4:54 PM,75.0,46.0,36,30.22,10.0,SE,12.7,-,N/A,,Clear,130,2013-05-27 20:54:00
5:54 PM,75.0,46.9,37,30.21,10.0,SE,9.2,-,N/A,,Clear,140,2013-05-27 21:54:00
6:54 PM,73.9,52.0,46,30.21,10.0,SE,8.1,-,N/A,,Clear,140,2013-05-27 22:54:00
7:54 PM,71.1,53.1,53,30.22,10.0,SSE,5.8,-,N/A,,Partly Cloudy,150,2013-05-27 23:54:00
8:54 PM,68.0,53.1,59,30.22,10.0,South,6.9,-,N/A,,Clear,180,2013-05-28 00:54:00
9:54 PM,68.0,55.0,63,30.23,10.0,South,8.1,-,N/A,,Clear,180,2013-05-28 01:54:00
10:54 PM,66.9,55.9,68,30.25,10.0,South,8.1,-,N/A,,Clear,190,2013-05-28 02:54:00
11:54 PM,66.0,57.0,73,30.25,10.0,South,5.8,-,N/A,,Clear,180,2013-05-28 03:54:00